Location: Liberec
(50.7833°N, 15.0500°E)
Time: 01:51:54
(UTC+01:00)

ISS - Visible Passes

Search period start: 21 November 2017 00:00
Search period end: 01 December 2017 00:00
Orbit: 402 x 407 km, 51.6° (Epoch: 21 November)

Date Brightness Start Highest point End Pass type
(mag) Time Alt. Az. Time Alt. Az. Time Alt. Az.
28 Nov -1.6 18:16:37 10° SSW 18:17:53 17° S 18:17:53 17° S visible
29 Nov -1.7 17:25:17 10° S 17:27:04 14° SE 17:27:47 13° SE visible
29 Nov -0.9 18:59:48 10° SW 19:00:27 15° SW 19:00:27 15° SW visible
30 Nov -2.8 18:07:39 10° SW 18:10:17 35° S 18:10:17 35° S visible
